[[{"header":{"parameterUnit":"m.s-1","parameterCategory":1,"la1":30.2991,"la2":30.254,"lo1":-89.0895,"lo2":-89.0444,"dy":0.0017,"dx":0.0017,"nx":28,"ny":28,"refTime":"2024-06-01T21:00:00:Z","depth":0,"parameterNumber":2,"parameterNumberName":"U-component_of_WINDS"},"data":[0,0,0,0,0,0,0,0,0,0,0,0,0,0,0,0,0,0,0,0,0,0,0,0,0,0,0,0,0,0,0,0,0,0,0,0,0,0,0,0,0,0,0,0,0,0,0,0,0,0,0,0,0,0,0,0,0,0,-0.4343,-0.4344,0,-0.4453,-0.4454,-0.4456,-0.4477,-0.4476,-0.4475,-0.4474,-0.4592,-0.4596,-0.46,0,0,0,0,0,0,0,0,0,0,0,0,0,-0.4156,-0.416,-0.4343,-0.4344,-0.4345,-0.4453,-0.4454,-0.4456,-0.4477,-0.4476,-0.4475,-0.4473,-0.4591,-0.4596,-0.46,0,0,0,0,0,0,0,0,0,0,0,0,0,-0.4249,-0.4161,-0.4343,-0.4369,-0.4372,-0.4453,-0.4454,-0.4456,-0.4477,-0.4476,-0.4474,-0.4473,-0.4589,-0.4595,-0.4601,-0.4665,0,0,-0.4619,-0.4622,0,0,0,0,0,0,0,0,-0.4244,-0.4256,-0.4363,-0.4367,-0.4371,-0.445,-0.4432,-0.4526,-0.4477,-0.4437,-0.4474,-0.4472,-0.4546,-0.4556,-0.4579,-0.467,-0.4676,-0.462,-0.4624,-0.4626,-0.4628,0,0,0,0,0,0,0,-0.4237,-0.4251,-0.4387,-0.4365,-0.437,-0.4377,-0.4389,-0.445,-0.4498,-0.4441,-0.4442,-0.4455,-0.4548,-0.4574,-0.4582,-0.4677,-0.462,-0.4625,-0.4629,-0.4631,-0.4828,-0.483,0,0,0,0,0,0,-0.4226,-0.4246,-0.4383,-0.439,-0.4303,-0.4381,-0.4394,-0.4426,-0.4497,-0.4507,-0.4456,-0.4455,-0.4564,-0.4575,-0.4587,-0.4668,-0.4626,-0.4632,-0.4635,-0.4827,-0.4829,-0.483,0,0,0,0,0,0,-0.4221,-0.4238,-0.4379,-0.4318,-0.4337,-0.4386,-0.4421,-0.4429,-0.4454,-0.4509,-0.4518,-0.4473,-0.4564,-0.4578,-0.4645,-0.4672,-0.4634,-0.464,-0.4825,-0.4827,-0.483,-0.4829,0,0,0,0,0,0,-0.4216,-0.4236,-0.4259,-0.4319,-0.434,-0.4434,-0.4423,-0.4432,-0.4464,-0.4464,-0.4527,-0.4537,-0.4564,-0.4636,-0.4651,-0.4679,-0.4644,-0.4823,-0.4826,-0.4829,-0.4827,-0.4831,-0.4834,0,0,0,0,0,-0.4209,-0.4255,-0.426,-0.4277,-0.437,-0.4435,-0.4448,-0.4476,-0.4466,-0.4491,-0.4526,-0.4535,-0.4666,-0.4643,-0.466,-0.469,-0.4821,-0.4825,-0.4829,-0.4825,-0.483,-0.4834,0,0,0,0,0,0,-0.42,-0.4264,-0.427,-0.4336,-0.438,-0.4438,-0.4471,-0.448,-0.4529,-0.4528,-0.4563,-0.4577,-0.4643,-0.4673,-0.4646,-0.4757,-0.4743,-0.4751,-0.4735,-0.474,-0.4744,-0.4736,-0.4649,0,0,0,0,0,-0.4205,-0.425,-0.4305,-0.4358,-0.438,-0.4421,-0.4451,-0.4469,-0.4516,-0.4536,-0.4576,-0.4623,-0.4676,-0.4709,-0.476,-0.4831,-0.4846,-0.486,-0.4864,-0.4867,-0.4874,-0.4915,-0.4923,-0.4843,-0.4843,-0.4843,0,0,-0.4217,-0.4258,-0.4285,-0.4357,-0.4393,-0.4442,-0.4437,-0.4488,-0.4526,-0.4544,-0.461,-0.4641,-0.4696,-0.4766,-0.4798,-0.4793,-0.4899,-0.4872,-0.4874,-0.4879,-0.492,-0.4927,-0.4934,-0.4845,-0.4845,-0.4844,0,0,-0.4264,-0.4298,-0.4347,-0.4383,-0.4437,-0.4464,-0.4476,-0.4534,-0.4555,-0.4621,-0.4636,-0.4682,-0.477,-0.481,-0.4841,-0.4904,-0.4914,-0.4919,-0.494,-0.4981,-0.4987,-0.4993,-0.5017,-0.5025,-0.4925,-0.4925,-0.4925,0,-0.4273,-0.4345,-0.4372,-0.4423,-0.4455,-0.4472,-0.4524,-0.4558,-0.4626,-0.4649,-0.4642,-0.4754,-0.4793,-0.4873,-0.4888,-0.4912,-0.4928,-0.4913,-0.4983,-0.4989,-0.4995,-0.5019,-0.5027,-0.4926,-0.4926,-0.4926,-0.4926,0,-0.4354,-0.4404,-0.4437,-0.4501,-0.4537,-0.4588,-0.4625,-0.4659,-0.4674,-0.4703,-0.4771,-0.4817,-0.4879,-0.4899,-0.4915,-0.4982,-0.4977,-0.4976,-0.4963,-0.5003,-0.5026,-0.5035,-0.4926,-0.4926,-0.4926,-0.4926,0,0,-0.4399,-0.4477,-0.4489,-0.4519,-0.4579,-0.462,-0.4672,-0.473,-0.476,-0.4806,-0.4853,-0.4928,-0.4927,-0.4963,-0.4984,-0.5019,-0.5067,-0.5014,-0.5016,-0.5024,-0.5146,-0.5148,-0.5157,-0.5074,-0.5076,-0.5077,-0.5142,0,-0.4455,-0.4546,-0.4573,-0.4651,-0.4699,-0.4716,-0.4762,-0.4806,-0.4834,-0.488,-0.4913,-0.4966,-0.496,-0.4982,-0.5017,-0.5054,-0.5093,-0.5049,-0.512,-0.5122,-0.5107,-0.5169,-0.5171,-0.523,-0.5151,-0.5152,-0.5154,0,-0.4532,-0.4579,-0.4661,-0.4717,-0.4738,-0.4779,-0.4835,-0.4878,-0.4929,-0.4947,-0.4987,-0.5004,-0.5062,-0.5045,-0.5126,-0.5096,-0.5127,-0.5149,-0.5152,-0.5161,-0.5141,-0.5182,-0.5249,-0.5259,-0.5168,-0.5166,-0.5165,0,-0.4559,-0.4642,-0.4703,-0.4728,-0.4794,-0.4822,-0.4852,-0.49,-0.4934,-0.4984,-0.5007,-0.5063,-0.5094,-0.5138,-0.5172,-0.5156,-0.5251,-0.5236,-0.527,-0.5269,-0.529,-0.5289,-0.5365,-0.5307,-0.5307,-0.5307,-0.5306,0,-0.4619,-0.467,-0.4716,-0.4754,-0.4812,-0.4842,-0.4899,-0.4929,-0.4973,-0.5018,-0.5036,-0.5079,-0.5119,-0.5168,-0.5194,-0.5259,-0.5273,-0.5291,-0.5298,-0.529,-0.5288,-0.5312,-0.5309,-0.5309,-0.5308,-0.5308,-0.5308,0,-0.466,-0.4692,-0.476,-0.4816,-0.4832,-0.4872,-0.4921,-0.496,-0.4988,-0.5046,-0.5061,-0.5107,-0.5166,-0.5202,-0.5277,-0.5295,-0.5366,-0.5371,-0.5349,-0.5352,-0.5385,-0.5382,-0.5481,-0.5496,-0.5425,-0.5426,-0.5426,0,-0.4697,-0.4736,-0.4796,-0.4827,-0.4856,-0.4905,-0.4939,-0.4971,-0.5006,-0.5067,-0.5099,-0.5158,-0.5207,-0.53,-0.5341,-0.5399,-0.5406,-0.5437,-0.5415,-0.5407,-0.5409,-0.5407,-0.5412,-0.5441,-0.5441,-0.5442,-0.5442,0,-0.4761,-0.4775,-0.4822,-0.4875,-0.4915,-0.4959,-0.5004,-0.5028,-0.5068,-0.5107,-0.5166,-0.5204,-0.5279,-0.5339,-0.54,-0.5432,-0.5445,-0.5448,-0.546,-0.5454,-0.544,-0.545,-0.536,-0.5447,-0.5446,-0.5446,-0.5446,-0.5445,-0.4802,-0.4838,-0.4886,-0.4939,-0.4975,-0.5016,-0.5055,-0.5088,-0.5137,-0.5199,-0.5216,-0.5278,-0.5329,-0.5412,-0.5446,-0.5496,-0.5493,-0.5508,-0.5513,-0.5517,-0.5518,-0.543,-0.5508,-0.5507,-0.5507,-0.5507,-0.5507,0,-0.4868,-0.49,-0.4948,-0.5008,-0.505,-0.5055,-0.5105,-0.514,-0.5194,-0.5239,-0.5287,-0.5356,-0.5413,-0.5459,-0.5519,-0.5551,-0.5558,-0.5565,-0.5565,-0.5572,-0.5517,-0.5502,-0.5558,-0.5558,-0.5558,-0.5558,-0.5558,-0.5558,-0.4908,-0.4969,-0.4989,-0.507,-0.5102,-0.5161,-0.5189,-0.5228,-0.5264,-0.5339,-0.5386,-0.5415,-0.5461,-0.5525,-0.5579,-0.5591,-0.5613,-0.562,-0.5633,-0.5581,-0.5576,-0.5571,-0.5557,-0.5624,-0.5624,-0.5684,-0.5685,-0.5685]},{"header":{"parameterUnit":"m.s-1","parameterCategory":1,"la1":30.2991,"la2":30.254,"lo1":-89.0895,"lo2":-89.0444,"dy":0.0017,"dx":0.0017,"nx":28,"ny":28,"refTime":"2024-06-01T21:00:00:Z","depth":0,"parameterNumber":3,"parameterNumberName":"V-component_of_WINDS"},"data":[0,0,0,0,0,0,0,0,0,0,0,0,0,0,0,0,0,0,0,0,0,0,0,0,0,0,0,0,0,0,0,0,0,0,0,0,0,0,0,0,0,0,0,0,0,0,0,0,0,0,0,0,0,0,0,0,0,0,3.3897,3.3898,0,3.3954,3.3955,3.3955,3.3896,3.3893,3.3891,3.3889,3.3946,3.395,3.3953,0,0,0,0,0,0,0,0,0,0,0,0,0,3.3733,3.3737,3.3897,3.3898,3.3898,3.3954,3.3955,3.3955,3.3896,3.3893,3.389,3.3888,3.3945,3.3949,3.3954,0,0,0,0,0,0,0,0,0,0,0,0,0,3.3799,3.3738,3.3897,3.3875,3.3874,3.3954,3.3955,3.3956,3.3897,3.3893,3.389,3.3886,3.3943,3.3949,3.3954,3.4058,0,0,3.3971,3.3973,0,0,0,0,0,0,0,0,3.3795,3.3805,3.3878,3.3877,3.3876,3.3914,3.3918,3.399,3.3897,3.3888,3.3889,3.3885,3.3938,3.3944,3.3962,3.406,3.4063,3.3971,3.3975,3.3977,3.3979,0,0,0,0,0,0,0,3.3791,3.3802,3.3919,3.3879,3.3878,3.3862,3.3867,3.3931,3.3932,3.3888,3.3884,3.3892,3.3937,3.3957,3.3963,3.4064,3.3971,3.3976,3.398,3.3982,3.4246,3.425,0,0,0,0,0,0,3.3789,3.3799,3.3918,3.3921,3.3826,3.3868,3.3874,3.3905,3.3931,3.3931,3.3895,3.3889,3.3949,3.3957,3.3965,3.4085,3.3977,3.3982,3.3986,3.4243,3.4247,3.4251,0,0,0,0,0,0,3.3786,3.38,3.3915,3.3859,3.3872,3.3874,3.391,3.3908,3.3928,3.3936,3.3935,3.3916,3.3947,3.3957,3.4034,3.4087,3.3985,3.399,3.4238,3.4244,3.4249,3.4329,0,0,0,0,0,0,3.3781,3.3799,3.3839,3.386,3.3876,3.3985,3.3913,3.3912,3.3938,3.3931,3.3955,3.3956,3.3945,3.4026,3.404,3.4092,3.3994,3.4234,3.4241,3.4247,3.4322,3.4337,3.435,0,0,0,0,0,3.3776,3.386,3.3842,3.3856,3.3926,3.3988,3.3997,3.3983,3.3943,3.3982,3.3986,3.3955,3.4079,3.4035,3.4049,3.4105,3.423,3.4239,3.4247,3.4316,3.4334,3.4349,0,0,0,0,0,0,3.3846,3.3862,3.3842,3.3936,3.3961,3.3978,3.4028,3.4003,3.404,3.4032,3.4013,3.4019,3.41,3.411,3.4061,3.4204,3.4148,3.4159,3.4195,3.4212,3.4226,3.4221,3.3999,0,0,0,0,0,3.3872,3.3922,3.3934,3.4015,3.4029,3.4026,3.4053,3.404,3.4065,3.4075,3.4085,3.411,3.4154,3.4184,3.4226,3.4323,3.4326,3.4368,3.4382,3.4393,3.4403,3.4453,3.4471,3.4279,3.4279,3.4278,0,0,3.3927,3.3942,3.3975,3.403,3.4047,3.4098,3.4036,3.4093,3.413,3.4084,3.4157,3.4165,3.4191,3.4279,3.4318,3.429,3.4457,3.4404,3.4413,3.4417,3.4463,3.4482,3.4498,3.4284,3.4283,3.4282,0,0,3.4053,3.407,3.4139,3.4158,3.4185,3.4183,3.4199,3.4219,3.4223,3.4296,3.4262,3.4306,3.4383,3.4402,3.4423,3.4554,3.4525,3.4568,3.464,3.4689,3.4704,3.4717,3.4762,3.4778,3.4578,3.4578,3.4578,0,3.4117,3.4193,3.4177,3.4236,3.426,3.4221,3.4289,3.4308,3.4348,3.4365,3.4333,3.4427,3.4443,3.4533,3.4565,3.4583,3.46,3.4564,3.4703,3.4716,3.4728,3.4771,3.4788,3.4583,3.4582,3.4582,3.4581,0,3.427,3.4323,3.4375,3.4414,3.4444,3.4507,3.45,3.4532,3.4516,3.4517,3.459,3.4607,3.465,3.4671,3.4656,3.4758,3.474,3.4706,3.4648,3.4752,3.4791,3.4807,3.459,3.4588,3.4587,3.4585,0,0,3.4442,3.447,3.4489,3.4505,3.4532,3.4572,3.4633,3.4675,3.4702,3.473,3.4779,3.4845,3.4813,3.4836,3.4823,3.4866,3.4966,3.4827,3.4827,3.485,3.5077,3.5101,3.5121,3.4948,3.4951,3.4953,3.5074,0,3.4567,3.4672,3.4659,3.476,3.4807,3.4769,3.4822,3.4843,3.4845,3.4885,3.4886,3.4932,3.4888,3.4901,3.4942,3.4945,3.5011,3.4937,3.4992,3.4994,3.4985,3.5142,3.5168,3.5282,3.509,3.5093,3.5094,0,3.4727,3.476,3.4865,3.4882,3.4902,3.495,3.4986,3.5025,3.5047,3.5045,3.507,3.5049,3.5108,3.505,3.5131,3.508,3.5102,3.5107,3.5111,3.5115,3.505,3.5148,3.5318,3.5334,3.5119,3.5117,3.5115,0,3.4839,3.491,3.4982,3.4997,3.502,3.5053,3.5064,3.5084,3.5109,3.514,3.5156,3.5195,3.5215,3.5245,3.5234,3.5193,3.5316,3.5257,3.5314,3.5315,3.5341,3.5339,3.5515,3.5358,3.5358,3.5357,3.5357,0,3.4979,3.5045,3.5032,3.5076,3.5148,3.5131,3.5202,3.5208,3.5225,3.5269,3.5239,3.528,3.5264,3.5304,3.5296,3.5363,3.5373,3.5372,3.5368,3.5374,3.5374,3.5387,3.5378,3.5362,3.5361,3.536,3.5359,0,3.5117,3.5111,3.5186,3.5201,3.5206,3.5258,3.527,3.531,3.5309,3.5364,3.5376,3.5375,3.542,3.5412,3.5463,3.5457,3.554,3.5528,3.5532,3.5529,3.5585,3.558,3.5775,3.5799,3.5627,3.5629,3.563,0,3.5206,3.5255,3.5274,3.5301,3.5314,3.5358,3.5383,3.5368,3.5396,3.5424,3.5461,3.5503,3.5536,3.561,3.5613,3.5651,3.5638,3.5704,3.5644,3.5647,3.5637,3.5634,3.5638,3.5716,3.5718,3.5719,3.5721,0,3.5364,3.5358,3.5396,3.5432,3.5463,3.5491,3.5516,3.554,3.5527,3.5559,3.5605,3.563,3.5681,3.5723,3.5758,3.5768,3.5742,3.574,3.5754,3.576,3.5759,3.5758,3.5563,3.5735,3.5734,3.5732,3.5732,3.5731,3.5479,3.552,3.5539,3.5581,3.5598,3.5622,3.566,3.5663,3.5701,3.5741,3.573,3.5781,3.58,3.5844,3.5858,3.5897,3.5873,3.5895,3.59,3.5906,3.5912,3.5754,3.5904,3.5904,3.5903,3.5903,3.5903,0,3.5633,3.5643,3.5683,3.5718,3.5751,3.5724,3.5749,3.5778,3.5824,3.5844,3.5877,3.5929,3.5969,3.5974,3.6012,3.6042,3.6031,3.6052,3.6049,3.6051,3.5932,3.5915,3.606,3.606,3.606,3.606,3.606,3.606,3.5718,3.5785,3.5782,3.5856,3.5866,3.5916,3.5932,3.5953,3.5969,3.6028,3.6061,3.6064,3.6078,3.6116,3.6151,3.6151,3.6166,3.6192,3.6187,3.6076,3.606,3.6045,3.6028,3.6195,3.6196,3.6303,3.6304,3.6305]}]]